Torna al catalogo

STARLINK-31313

AttivoComunicazioniVLEO
NORAD 59088·PAYLOAD·🇺🇸 United States

Lanciato Feb 29, 2024 da Cape Canaveral Space Force Station

Loading…

Prossimi Passaggi (prossime 24 ore)

TLE

AggiornatoSource: CelesTrak SupGP

Epoca: Sep 14, 2026, 21:40 UTC

1 59088C 24041Q   26257.90326389 -.00027609  00000+0 -10001-2 0  2579
2 59088  43.0014 322.0025 0001629 267.8442 347.5409 15.27590120    14

Traccia STARLINK-31313 in tempo reale con AllMySat

Download on the App Store